Location: Concepci�n
(32.5333°N, 117.1167°W)
Time: 18:40:40
(UTC+00:00)

Tsikada Rocket - Pass Details

Date: 08 May 2021
Orbit: 957 x 1010 km, 82.9° (Epoch: 18 June)

Event Time Altitude Azimuth Distance (km) Brightness Sun altitude
Rises 12:20:58 0° 186° (S) 3,723 6.7 -7.4°
Reaches altitude 10° 12:23:29 10° 187° (S) 2,778 6.1 -6.9°
Maximum altitude 12:29:54 83° 276° (W) 1,021 4.1 -5.7°
Drops below altitude 10° 12:36:20 10° 4° (N) 2,785 6.8 -4.5°
Sets 12:38:52 0° 5° (N) 3,733 7.5 -4.0°
